Regional Weather Roundup
Issued by NWS

Home | Current Version | Previous Version | Text Only | Print | Product List | Glossary On
Versions: 1 2 3 4 5 6 7 8 9 10 11 12 13 14 15 16 17 18 19 20 21 22 23 24 25 26 27
000
ASUS45 KPSR 251710
RWRAZ

ARIZONA HOURLY REGIONAL WEATHER ROUNDUP
NATIONAL WEATHER SERVICE PHOENIX AZ
1000 AM MST TUE APR 25 2017

NOTE: FAIR INDICATES FEW OR NO CLOUDS BELOW 12,000 FEET WITH NO
SIGNIFICANT WEATHER AND/OR OBSTRUCTIONS TO VISIBILITY.

AZZ001>003-036-251800-
NORTHWEST ARIZONA

CITY           SKY/WX    TMP DP  RH WIND       PRES   REMARKS
BULLHEAD CITY  MOSUNNY   79  19  11 N18G31    29.73R
KINGMAN        MOSUNNY   67  19  16 N22G28    29.81R
$$

AZZ004>008-015-016-018-251800-
NORTH CENTRAL ARIZONA

CITY           SKY/WX    TMP DP  RH WIND       PRES   REMARKS
GRAND CANYON   SUNNY     53  14  21 NW15G31   29.81R
WILLIAMS       SUNNY     55  19  24 NW16G23   29.84S
PRESCOTT       MOSUNNY   63  26  24 NW15G21   29.81R
FLAGSTAFF      MOSUNNY   54  19  25 NW10G22   29.83R
PAYSON         PTSUNNY   59  36  41 VRB6G20   29.83R
PAGE           SUNNY     62  24  23 NW15G23   29.71S
$$

AZZ009>014-017-251800-
NORTHEAST ARIZONA

CITY           SKY/WX    TMP DP  RH WIND       PRES   REMARKS
WINSLOW        PTSUNNY   66  32  28 SW16G25   29.73S
SAINT JOHNS    PTSUNNY   60  32  34 W25G44    29.74F
WINDOW ROCK    CLOUDY    46  36  68 W10       29.78R
SHOW LOW       PTSUNNY   54  30  40 SW23      29.81R
$$

AZZ540-542>544-546-548-251800-
GREATER PHOENIX AREA

CITY           SKY/WX    TMP DP  RH WIND       PRES   REMARKS
PHOENIX        PTSUNNY   75  40  28 W10       29.70R
BUCKEYE        MOSUNNY   73  37  27 SW10      29.72R
GLENDALE       CLOUDY    75  43  31 S13G23    29.71S
LUKE AFB       MOSUNNY   75  39  27 SW16      29.70R
DEER VALLEY    MOSUNNY   72  41  32 SW12      29.71R
SCOTTSDALE     MOSUNNY   73  38  27 W10       29.73R
MESA-FALCON    MOSUNNY  N/A N/A N/A SW14      29.72R
MESA-GATEWAY   MOSUNNY   73  46  38 SW16      29.73R
CHANDLER       SUNNY     75  43  31 SW10G17   29.71
$$

AZZ539-553-251800-
SOUTHWEST MARICOPA COUNTY AND PINAL COUNTY

CITY           SKY/WX    TMP DP  RH WIND       PRES   REMARKS
CASA GRANDE    MOSUNNY   74  46  36 SW10      29.74R
GILA BEND      SUNNY     75  41  30 W16       29.72R
$$

AZZ503-504-507>509-251800-
SOUTHEAST ARIZONA

CITY           SKY/WX    TMP DP  RH WIND       PRES   REMARKS
TUCSON         SUNNY     75  37  25 W13G20    29.79S
DAVIS-MONTHAN  MOSUNNY   74  37  26 W14G22    29.78S
RYAN FIELD     SUNNY     75  37  25 S17G24    29.78F
NOGALES        SUNNY     74  30  19 SW18G25   29.85R
SIERRA VISTA   SUNNY     71  26  18 SW24G35   29.85S
DOUGLAS        SUNNY     73  21  14 SW21G31   29.83R
SAFFORD        MOSUNNY   75  34  22 NW24G38   29.70S
$$

AZZ532-251800-
SOUTHWEST ARIZONA

CITY           SKY/WX    TMP DP  RH WIND       PRES   REMARKS
YUMA           PTSUNNY   74  44  34 NW15      29.76R
$$

CAZ041-043-047-048-061-525>527-560>570-251800-
SOUTHERN CALIFORNIA

CITY           SKY/WX    TMP DP  RH WIND       PRES   REMARKS
DOWNTOWN L.A.  MOSUNNY   72  40  31 NW7       29.90R
L.A. AIRPORT   PTSUNNY   70  39  32 NW18G26   29.90R
SAN DIEGO      PTSUNNY   65  53  65 S8        29.95R
BURBANK        MOSUNNY   65  37  35 NW13G21   29.91S
ONTARIO        CLOUDY    63  49  60 SW5       29.91R
RIVERSIDE      PTSUNNY   64  51  62 CALM      29.91R
PALM SPRINGS   MOSUNNY   77  42  28 NW22      29.77S
EL CENTRO NAS  PTSUNNY   79  37  22 W20       29.77R
IMPERIAL       MOSUNNY   78  42  27 W17       29.76R
BLYTHE         MOSUNNY   78  37  22 NW17      29.73R
NEEDLES        MOSUNNY   81  23  11 NE17G30   29.74R
$$

NVZ020-UTZ003-251800-
SOUTHERN NEVADA-UTAH

CITY           SKY/WX    TMP DP  RH WIND       PRES   REMARKS
LAS VEGAS      PTSUNNY   71  17  12 N18G32    29.79R
SALT LAKE CITY LGT RAIN  41  38  89 N6        29.84R
$$

NMZ009-TXZ055-251800-
NEW MEXICO-WEST TEXAS

CITY           SKY/WX    TMP DP  RH WIND       PRES   REMARKS
ALBUQUERQUE    LGT RAIN  47  45  93 SW9       29.75S
EL PASO        MOSUNNY   78  17  10 W33G41    29.69F BLWGDUST
$$


........................KEY........................
SKY/WX - SKY CONDITION/WEATHER
TMP    - TEMPERATURE IN FAHRENHEIT
DP     - DEW POINT IN FAHRENHEIT
RH     - RELATIVE HUMIDITY IN PERCENT
WIND   - DIRECTION AND SPEED IN MILES PER HOUR (MPH)
VRB    - VARIABLE WIND DIRECTION
PRES   - MEAN SEA LEVEL PRESSURE IN INCHES OF MERCURY
         F - FALLING PRESSURE   R - RISING PRESSURE
         S - STEADY PRESSURE
VSB    - VISIBILITY IN MILES
HX     - HEAT INDEX IN FAHRENHEIT
WCI    - WIND CHILL INDEX IN FAHRENHEIT
TC     - TEMPERATURE IN CELSIUS WHICH IS ALSO KNOWN AS
         TEMPERATURE IN CENTIGRADE
AFB    - AIR FORCE BASE
         LUKE AFB IS LUKE AIR FORCE BASE
         DAVIS-MONTHAN IS DAVIS-MONTHAN AIR FORCE BASE
NAS    - NAVAL AIR STATION
         EL CENTRO NAS IS EL CENTRO NAVAL AIR STATION
N/A    - NOT AVAILABLE





USA.gov is the U.S. government's official web portal to all federal, state and local government web resources and services.